User: anonymous   Login
Location: Unspecified
(0.0000°N, 0.0000°E)
Time: 23:50:23
(UTC+00:00)
Language:

S-56A Canister/Altair - Orbit

View from above orbital plane
View from above orbital plane
View from above satellite
View from above satellite

Ground track
Ground track

The orbit data is extracted from the following two-line orbital elements,

1 00082U 61004B   15084.34781030  .00000018  00000-0  40417-4 0  9994
2 00082 038.8603 071.8935 1174568 223.1425 127.1152 12.25683400573278
Epoch (UTC): 25 March 2015 08:20:50
Eccentricity: 0.1174568
inclination: 38.8603°
perigee height: 634 km
apogee height: 2501 km
right ascension of ascending node: 71.8935°
argument of perigee: 223.1425°
revolutions per day: 12.25683400
mean anomaly at epoch: 127.1152°
orbit number at epoch: 57327

The dashed part of the orbit path shows where the satellite is in the earth's shadow,  

DLR